星链-32540 (STARLINK-32540)

导读 | 星芒AI

STARLINK-32540 是 SpaceX 星链(Starlink)卫星互联网项目中的一颗低轨通信卫星。它属于星链计划的第二批部署任务,旨在为全球用户提供高速互联网服务。该卫星运行在约 550 公里的近地轨道,采用先进推进系统和激光通信技术,以提升网络连接的稳定性和效率。作为星链星座的一部分,STARLINK-32540 有助于扩大覆盖范围,特别是在偏远和网络基础设施薄弱的地区。

基本信息
目录编号:
61723
目录名称:
STARLINK-32540
国际标识:
2024-196S
轨道中心:
EARTH
卫星名称:
星链-32540
卫星全名:
星链-32540 (STARLINK-32540)
卫星状态:
在轨 (已飞行370 天)
发射日期:
2024-10-30 UTC
国别 :
美国 (US)
星等 :
--
轨道信息
数据来源 国际轨道数据
星历时间: 2025-11-04T11:47:22+0800
4小时前
查看轨道信息
半长轴: 6853.385km
偏心率: 0.0001554
轨道倾角: 53.161°
近地点辐角 91.078°
升交点赤经 288.611°
平近点角 269.040°
近地点: 474.184km
远地点: 476.316km
周期: 94.106分钟
每日圈数: 15.301893
详细信息
固有亮度:
5
最大亮度:
2.5
卫星平台:
Starlink V1.0
覆盖范围:
全球
运营商:
太空探索技术公司
运营商所在国:
美国
制造商(研发单位):
太空探索技术公司
制造商所在国:
美国
使用方式:
暂无
卫星简介
Starlink 计划是 SpaceX 推出的全球卫星互联网项目,通过发射低轨道卫星,为全球尤其是偏远地区提供高速、低延迟的互联网服务。自 2019 年起,Starlink 已部署数千颗卫星,旨在缩小全球数字鸿沟,推动互联网普及。该项目还为军事、航空等行业提供通信支持,带来广泛经济效益。
2D轨道图
3D轨道图
轨道高度分析图
轨道倾角分析图
轨道综合分析图
查看轨道综合分析图